Location: Miss�
(46.9484°N, 0.1922°W)
Time: 22:21:37
(UTC+00:00)

APEX - Pass Details

Date: 02 March 2021
Orbit: 332 x 1081 km, 69.9° (Epoch: 14 April)

Event Time Altitude Azimuth Distance (km) Brightness Sun altitude
Rises 16:59:45 0° 347° (NNW) 2,311 6.5 7.1°
Reaches altitude 10° 17:03:26 10° 33° (NNE) 1,335 4.9 6.5°
Drops below altitude 10° 17:04:24 10° 53° (NE) 1,313 4.7 6.4°
Enters shadow 17:12:37 -13° 121° (ESE) 3,975 7.3 5.0°
Exits shadow 17:31:35 -50° 142° (SE) 10,664 9.6 1.9°
Maximum altitude 18:45:27 42° 247° (WSW) 494 3.7 -10.6°
Sets 18:50:00 0° 166° (SSE) 2,112 6.1 -11.4°
